CZ-4C R/B - Orbit

View from above orbital plane
View from above orbital plane
View from above satellite
View from above satellite

Ground track
Ground track

The orbit data is extracted from the following two-line orbital elements,

1 32290U 07055B   13137.17434375  .00004390  00000-0  19990-3 0  5838
2 32290 097.6205 204.3803 0097918 347.0989 067.3386 15.16995234304152
Epoch (UTC): 17 May 2013 04:11:03
Eccentricity: 0.0097918
inclination: 97.6205°
perigee height: 447 km
apogee height: 582 km
right ascension of ascending node: 204.3803°
argument of perigee: 347.0989°
revolutions per day: 15.16995234
mean anomaly at epoch: 67.3386°
orbit number at epoch: 30415

The dashed part of the orbit path shows where the satellite is in the earth's shadow,  

Developed and maintained by Chris Peat, Heavens-Above GmbH. Please read the updated FAQ before sending e-mail. Imprint. DLR